Погода в Селивановской

Россия / Ростовская область     48°50′49″N   41°43′04″E
темп.,
°C
ветер,
м/с
пор.,
м/с
влажн.,
%
обл.,
%
осадки,
мм/ч
давл.,
гПа
погр.,
м
14 апреля, ср
ср1400:00+13в41048100 0.0 1021178
03:00+10в41053100 0.0 1020151
06:00+9в4755100 0.0 1019112
09:00+15в6938100 0.0 1018456
12:00+18вюв3433100 0.0 1017808
15:00+18вюв61139100 0.0 10161205
18:00+16юв4753100 0.0 1016322
21:00+13ю3466100 0.0 101668
15 апреля, чт
чт1500:00+12з1268100 0.0 101548
03:00+11юз228095 0.0 101621
06:00+10з348681 0.0 101677
09:00+14зсз456862 0.0 1016529
12:00+17з335243 0.1 10161522
15:00+18з334028 0.1 10152039
18:00+17з34475 0.0 1015134
21:00+13зюз335789 0.0 101626
16 апреля, пт
пт1600:00+12з487377 0.0 1016156
03:00+10зсз34755 0.0 101669
06:00+9с22795 0.0 101730
09:00+14зюз226242 0.0 1018513
12:00+18юз34490 0.0 10171523
15:00+19юз453861 0.0 10172356
18:00+17з1148100 0.0 101630
21:00+12зюз81074100 0.2 1018559
17 апреля, сб
сб1700:00+10зсз4692100 2.5 1018312
03:00+10ю3689100 11.9 1018509
06:00+9зюз478299 0.6 1019597
09:00+11зюз456711 0.7 1020993
12:00+15зюз454685 0.1 10202029
15:00+14юз5441100 0.1 10201960
18:00+13ююз355411 0.0 1020560
21:00+9зюз37735 0.0 1021171
18 апреля, вс
вс1800:00+7юз22755 0.0 102232
03:00+6ююз22804 0.0 102126
06:00+6ююв22795 0.0 102131
09:00+11ю44605 0.0 1021789
12:00+14юз345141 0.0 10201573
15:00+15зюз334490 0.1 10191840
18:00+14з2253100 0.0 101975
21:00+11юз2366100 0.0 102032